Weather History for Kaneohe MCBH, HI

Change the Weather History Date:

Saturday, December 7, 2013

  Actual Average Record
Temperature  
Mean Temperature 76 °F -  
Max Temperature 80 °F 76 °F 82 °F (2001)
Min Temperature 71 °F 68 °F 46 °F (2001)
Cooling Degree Days 10    
Growing Degree Days 26 (Base 50)    
Moisture  
Dew Point 66 °F    
Average Humidity 75    
Maximum Humidity 88    
Minimum Humidity 56    
Precipitation  
Precipitation 0.00 in - - ()
Sea Level Pressure  
Sea Level Pressure 29.95 in    
Wind  
Wind Speed 4 mph (East)    
Max Wind Speed 8 mph    
Max Gust Speed -    
Visibility 8 miles    
Events      
Averages and records for this station are not official NWS values.
T = Trace of Precipitation, MM = Missing Value Source: NWS Daily Summary

Daily Weather History Graph

Daily Weather History Graph

Search for Another Location

Airport:

Trip Planner

Search our weather history database for the weather conditions in past years. The results will help you decide how hot, cold, wet, or windy it might be!

Date:

Astronomy

Dec. 07, 2013 Rise Set
Actual Time 6:56 AM HST 5:48 PM HST
Civil Twilight 6:32 AM HST 6:13 PM HST
Nautical Twilight 6:04 AM HST 6:40 PM HST
Astronomical Twilight 5:37 AM HST 7:07 PM HST
Moon 11:14 AM HST (12/7) 11:13 PM HST (12/7)
Length of Visible Light 11h 40m
Length of Day
10h 52m
Waxing Crescent, 31% of the Moon is Illuminated
Dec 7
Waxing Crescent
Dec 9
First Quarter
Dec 16
Full
Dec 25
Last Quarter
Jan 1
New

Hourly Weather History & Observations

Time (HST) Temp. Heat Index Dew Point Humidity Pressure Visibility Wind Dir Wind Speed Gust Speed Precip Events Conditions
12:57 AM - - - N/A% 29.94 in 9.0 mi ESE 6.9 mph - N/A   Partly Cloudy
1:57 AM - - - N/A% 29.93 in 9.0 mi ESE 5.8 mph - N/A   Mostly Cloudy
2:07 AM - - - N/A% 29.94 in 6.2 mi ESE 4.6 mph - N/A   Scattered Clouds
2:48 AM - - - N/A% 29.94 in 6.2 mi ESE 3.5 mph - N/A   Mostly Cloudy
2:55 AM - - - N/A% 29.94 in 6.2 mi ESE 4.6 mph - N/A   Scattered Clouds
2:57 AM - - - N/A% 29.92 in 9.0 mi East 4.6 mph - N/A   Scattered Clouds
3:14 AM - - - N/A% 29.93 in 6.2 mi ESE 5.8 mph - N/A   Mostly Cloudy
3:30 AM - - - N/A% 29.93 in 6.2 mi East 4.6 mph - N/A   Mostly Cloudy
3:57 AM - - - N/A% 29.92 in 9.0 mi East 3.5 mph - N/A   Scattered Clouds
4:57 AM 71.6 °F - 64.9 °F 79% 29.93 in 9.0 mi SE 3.5 mph - N/A   Clear
5:57 AM 71.6 °F - 64.0 °F 77% 29.93 in 9.0 mi Calm Calm - N/A   Clear
6:57 AM 71.6 °F - 63.0 °F 74% 29.94 in 8.0 mi Calm Calm - N/A   Clear
7:57 AM 71.6 °F - 63.0 °F 74% 29.96 in 8.0 mi Calm Calm - N/A   Clear
8:57 AM 71.6 °F - 68.0 °F 88% 29.96 in 9.0 mi Calm Calm - N/A   Partly Cloudy
9:57 AM 74.1 °F - 69.1 °F 84% 29.96 in 9.0 mi SE 3.5 mph - N/A   Mostly Cloudy
10:07 AM - - - N/A% 29.98 in 6.2 mi ENE 3.5 mph - N/A   Scattered Clouds
10:27 AM 75.2 °F - 68.0 °F 78% 29.98 in 6.2 mi NE 5.8 mph - N/A   Mostly Cloudy
10:54 AM 75.2 °F - 68.0 °F 78% 29.97 in 6.2 mi NNE 5.8 mph - N/A   Partly Cloudy
10:57 AM 74.3 °F - 68.0 °F 81% 29.96 in 7.0 mi NNE 4.6 mph - N/A   Partly Cloudy
11:04 AM - - - N/A% 29.97 in 6.2 mi NE 4.6 mph - N/A   Mostly Cloudy
11:12 AM - - - N/A% 29.97 in 6.2 mi NE 4.6 mph - N/A   Scattered Clouds
11:57 AM 77.5 °F - 66.0 °F 68% 29.94 in 7.0 mi Variable 4.6 mph - N/A   Partly Cloudy
12:57 PM 77.7 °F - 66.9 °F 69% 29.91 in 8.0 mi ESE 8.1 mph - N/A   Clear
1:57 PM 80.1 °F 81.9 °F 64.9 °F 60% 29.90 in 10.0 mi East 8.1 mph - N/A   Clear
2:57 PM 80.1 °F 81.5 °F 63.0 °F 56% 29.89 in 9.0 mi East 6.9 mph - N/A   Clear
3:57 PM 79.3 °F - 64.9 °F 61% 29.90 in 10.0 mi East 5.8 mph - N/A   Clear
4:57 PM 77.0 °F - 64.9 °F 66% 29.91 in 10.0 mi ESE 4.6 mph - N/A   Clear
5:57 PM 77.0 °F - 64.9 °F 66% 29.94 in 9.0 mi ESE 3.5 mph - N/A   Clear
6:57 PM 77.0 °F - 66.0 °F 69% 29.96 in 9.0 mi ESE 4.6 mph - N/A   Scattered Clouds
7:04 PM - - - N/A% 29.97 in 6.2 mi ESE 5.8 mph - N/A   Mostly Cloudy
7:13 PM 73.4 °F - 66.2 °F 78% 29.97 in 6.2 mi ESE 5.8 mph - N/A   Scattered Clouds
7:57 PM 74.1 °F - 66.9 °F 78% 29.97 in 9.0 mi ESE 4.6 mph - N/A   Scattered Clouds
8:57 PM 74.1 °F - 66.9 °F 78% 29.99 in 9.0 mi Calm Calm - N/A   Scattered Clouds
9:18 PM - - - N/A% 30.00 in 6.2 mi Calm Calm - N/A   Mostly Cloudy
9:28 PM 71.6 °F - 66.2 °F 83% 30.00 in 6.2 mi Calm Calm - N/A   Scattered Clouds
9:57 PM 72.1 °F - 66.9 °F 84% 29.99 in 10.0 mi Calm Calm - N/A   Scattered Clouds
10:57 PM 72.1 °F - 66.0 °F 81% 29.98 in 9.0 mi Calm Calm - N/A   Scattered Clouds
11:57 PM 72.1 °F - 66.0 °F 81% 29.97 in 9.0 mi Calm Calm - N/A   Clear